Location: Pedholt
(56.0260°N, 10.2097°E)
Time: 00:00:16
(UTC+00:00)

A-11 Canister half - Pass Details

Date: 28 July 2021
Orbit: 1515 x 1685 km, 47.2° (Epoch: 19 September)

Event Time Altitude Azimuth Distance (km) Brightness Sun altitude
Rises 18:21:55 0° 234° (SW) 4,834 12.1 8.0°
Reaches altitude 10° 18:25:10 10° 228° (SW) 3,871 11.5 7.6°
Maximum altitude 18:34:22 45° 161° (SSE) 2,157 9.6 6.4°
Drops below altitude 10° 18:43:47 10° 93° (E) 3,953 10.6 5.2°
Sets 18:47:08 0° 88° (E) 4,943 11.1 4.8°
